Location: Ústí nad Labem
(50.6611°N, 14.0531°E)
Time: 05:17:08
(UTC+02:00)

Transit 2A Rocket - Visible Passes

Search period start: 22 April 2024 00:00
Search period end: 02 May 2024 00:00
Orbit: 587 x 907 km, 66.7° (Epoch: 21 April)

Date Brightness Start Highest point End Pass type
(mag) Time Alt. Az. Time Alt. Az. Time Alt. Az.
22 Apr 5.6 20:47:43 10° NW 20:53:14 68° WSW 20:59:08 10° SSE visible
22 Apr 7.6 22:32:06 10° WNW 22:34:55 14° WSW 22:37:48 10° SW visible
23 Apr 7.2 21:47:00 10° WNW 21:51:20 23° WSW 21:55:50 10° SSW visible
24 Apr 6.6 21:02:31 10° NW 21:07:37 36° WSW 21:12:58 10° S visible
25 Apr 7.9 22:04:02 10° W 22:05:17 11° WSW 22:06:32 10° WSW visible
26 Apr 7.6 21:17:56 10° WNW 21:21:43 18° WSW 21:25:38 10° SSW visible
